TVS459F LKMT-EPKT

Flight info

Callsign TVS459F
Flight time 0h 24m
Altitude 10000
Route BAVOK
Aircraft B738/M-SDE3FGHIJ1RWXYZ/LB1

Departure

Time 2026-05-07 06:23
Airport Leoš Janáček Airport Ostrava (LKMT)

Arrival

Time 2026-05-07 06:47
Airport Katowice Wojciech Korfanty International Airport (EPKT)
Time Latitude Longitude Altitude Speed Heading
2026-05-07 05:50 49.69571 18.11957 828 ft 0 kts 149°
2026-05-07 06:17 49.69569 18.11957 828 ft 1 kts 165°
2026-05-07 06:17 49.69564 18.11946 828 ft 1 kts 244°
2026-05-07 06:17 49.69568 18.11932 826 ft 2 kts 302°
2026-05-07 06:17 49.69578 18.11896 828 ft 4 kts 289°
2026-05-07 06:18 49.69593 18.11827 828 ft 9 kts 288°
2026-05-07 06:18 49.69643 18.11809 826 ft 9 kts 46°
2026-05-07 06:18 49.69692 18.11893 824 ft 11 kts 46°
2026-05-07 06:18 49.69750 18.11988 826 ft 13 kts 46°
2026-05-07 06:19 49.69816 18.12097 821 ft 15 kts 48°
2026-05-07 06:19 49.69890 18.12219 824 ft 16 kts 46°
2026-05-07 06:19 49.69972 18.12352 821 ft 18 kts 46°
2026-05-07 06:19 49.70050 18.12446 822 ft 13 kts
2026-05-07 06:20 49.70122 18.12375 819 ft 13 kts 316°
2026-05-07 06:20 49.70186 18.12280 822 ft 13 kts 316°
2026-05-07 06:20 49.70257 18.12190 823 ft 13 kts 340°
2026-05-07 06:20 49.70338 18.12238 822 ft 13 kts 47°
2026-05-07 06:21 49.70406 18.12349 822 ft 15 kts 46°
2026-05-07 06:21 49.70486 18.12478 820 ft 17 kts 46°
2026-05-07 06:21 49.70574 18.12621 815 ft 20 kts 46°
2026-05-07 06:21 49.70659 18.12768 813 ft 16 kts 66°
2026-05-07 06:22 49.70691 18.12834 810 ft 5 kts 336°
2026-05-07 06:22 49.70608 18.12678 814 ft 46 kts 226°
2026-05-07 06:22 49.70185 18.11996 825 ft 126 kts 226°
2026-05-07 06:23 49.69475 18.10865 1338 ft 149 kts 226°
2026-05-07 06:23 49.68764 18.09752 2510 ft 139 kts 228°
2026-05-07 06:23 49.68115 18.08702 3578 ft 137 kts 229°
2026-05-07 06:23 49.67453 18.07623 4447 ft 145 kts 229°
2026-05-07 06:24 49.66686 18.06373 4901 ft 180 kts 229°
2026-05-07 06:24 49.65745 18.04837 5194 ft 213 kts 229°
2026-05-07 06:24 49.64800 18.02857 5467 ft 247 kts 250°
2026-05-07 06:24 49.64662 18.00188 6333 ft 257 kts 280°
2026-05-07 06:25 49.65461 17.97712 7377 ft 266 kts 309°
2026-05-07 06:25 49.66978 17.95985 8392 ft 278 kts 328°
2026-05-07 06:25 49.68734 17.94598 9245 ft 287 kts 330°
2026-05-07 06:25 49.70519 17.93200 9574 ft 289 kts 329°
2026-05-07 06:26 49.72309 17.91756 9883 ft 292 kts 329°
2026-05-07 06:26 49.74093 17.90293 9888 ft 286 kts 329°
2026-05-07 06:26 49.75865 17.88887 9899 ft 291 kts 335°
2026-05-07 06:26 49.77900 17.88446 9908 ft 303 kts
2026-05-07 06:27 49.79861 17.89628 9904 ft 307 kts 35°
2026-05-07 06:27 49.81470 17.91803 9910 ft 307 kts 42°
2026-05-07 06:27 49.83022 17.94095 9904 ft 308 kts 43°
2026-05-07 06:27 49.84043 17.95627 9901 ft 308 kts 43°
2026-05-07 06:28 49.85585 17.97930 9907 ft 308 kts 43°
2026-05-07 06:28 49.87638 18.00971 9897 ft 307 kts 43°
2026-05-07 06:28 49.88688 18.02521 9891 ft 308 kts 43°
2026-05-07 06:28 49.90240 18.04802 9899 ft 308 kts 43°
2026-05-07 06:29 49.91798 18.07086 9896 ft 307 kts 43°
2026-05-07 06:29 49.93338 18.09344 9877 ft 308 kts 42°
2026-05-07 06:29 49.94901 18.11634 9875 ft 308 kts 42°
2026-05-07 06:29 49.96465 18.13927 9880 ft 309 kts 42°
2026-05-07 06:30 49.98028 18.16219 9879 ft 308 kts 42°
2026-05-07 06:30 49.99591 18.18514 9877 ft 309 kts 42°
2026-05-07 06:30 50.01058 18.20941 9875 ft 308 kts 52°
2026-05-07 06:30 50.02299 18.23662 9883 ft 308 kts 56°
2026-05-07 06:31 50.03481 18.26447 9882 ft 308 kts 57°
2026-05-07 06:31 50.04658 18.29222 9869 ft 308 kts 56°
2026-05-07 06:31 50.05837 18.31964 9884 ft 309 kts 56°
2026-05-07 06:31 50.07047 18.34743 9883 ft 311 kts 56°
2026-05-07 06:32 50.08269 18.37528 9863 ft 311 kts 55°
2026-05-07 06:32 50.09496 18.40313 9868 ft 311 kts 55°
2026-05-07 06:32 50.10718 18.43082 9885 ft 310 kts 55°
2026-05-07 06:32 50.11947 18.45865 9879 ft 313 kts 55°
2026-05-07 06:33 50.13186 18.48659 9856 ft 313 kts 53°
2026-05-07 06:33 50.14544 18.51296 9861 ft 311 kts 49°
2026-05-07 06:33 50.15974 18.53833 9878 ft 311 kts 47°
2026-05-07 06:33 50.17394 18.56326 9867 ft 311 kts 48°
2026-05-07 06:34 50.18819 18.58859 9868 ft 311 kts 48°
2026-05-07 06:34 50.20239 18.61413 9861 ft 310 kts 49°
2026-05-07 06:34 50.21650 18.63968 9855 ft 310 kts 49°
2026-05-07 06:34 50.23060 18.66512 9847 ft 310 kts 47°
2026-05-07 06:35 50.24659 18.68803 9665 ft 312 kts 37°
2026-05-07 06:35 50.26386 18.70853 9466 ft 311 kts 34°
2026-05-07 06:35 50.28112 18.72846 9202 ft 311 kts 34°
2026-05-07 06:35 50.29839 18.74870 8944 ft 309 kts 35°
2026-05-07 06:36 50.31535 18.76897 8679 ft 304 kts 36°
2026-05-07 06:36 50.33200 18.78913 8425 ft 301 kts 36°
2026-05-07 06:36 50.34850 18.80924 8173 ft 300 kts 36°
2026-05-07 06:36 50.36497 18.82935 7930 ft 300 kts 36°
2026-05-07 06:37 50.38056 18.85089 7652 ft 300 kts 51°
2026-05-07 06:37 50.38918 18.87997 7409 ft 299 kts 78°
2026-05-07 06:37 50.39055 18.91220 7184 ft 295 kts 92°
2026-05-07 06:37 50.39011 18.94444 6943 ft 294 kts 92°
2026-05-07 06:38 50.38966 18.97643 6695 ft 293 kts 92°
2026-05-07 06:38 50.38929 19.00843 6451 ft 292 kts 92°
2026-05-07 06:38 50.38902 19.04025 6213 ft 291 kts 91°
2026-05-07 06:38 50.38880 19.07195 5957 ft 290 kts 91°
2026-05-07 06:39 50.38859 19.10313 5698 ft 288 kts 91°
2026-05-07 06:39 50.38838 19.13445 5444 ft 287 kts 91°
2026-05-07 06:39 50.38820 19.16577 5187 ft 286 kts 91°
2026-05-07 06:39 50.38800 19.19690 4939 ft 285 kts 91°
2026-05-07 06:40 50.38779 19.22802 4701 ft 284 kts 91°
2026-05-07 06:40 50.38758 19.25896 4445 ft 283 kts 90°
2026-05-07 06:40 50.38740 19.28981 4180 ft 282 kts 91°
2026-05-07 06:40 50.38734 19.32039 3917 ft 279 kts 88°
2026-05-07 06:41 50.39258 19.34920 3636 ft 275 kts 58°
2026-05-07 06:41 50.40551 19.37027 3399 ft 267 kts 30°
2026-05-07 06:41 50.42217 19.38086 3164 ft 259 kts
2026-05-07 06:41 50.43962 19.38258 3034 ft 245 kts 355°
2026-05-07 06:42 50.45645 19.38264 2998 ft 237 kts 353°
2026-05-07 06:42 50.47126 19.37656 2978 ft 207 kts 317°
2026-05-07 06:42 50.47818 19.35943 2994 ft 179 kts 271°
2026-05-07 06:42 50.47637 19.34085 3008 ft 174 kts 259°
2026-05-07 06:43 50.47624 19.32137 3027 ft 181 kts 272°
2026-05-07 06:43 50.47613 19.30170 3018 ft 178 kts 267°
2026-05-07 06:43 50.47584 19.28225 3018 ft 177 kts 268°
2026-05-07 06:43 50.47579 19.26362 2995 ft 162 kts 269°
2026-05-07 06:44 50.47578 19.24677 2848 ft 147 kts 269°
2026-05-07 06:44 50.47580 19.23141 2683 ft 133 kts 269°
2026-05-07 06:44 50.47581 19.21754 2498 ft 122 kts 268°
2026-05-07 06:44 50.47583 19.20432 2345 ft 121 kts 268°
2026-05-07 06:45 50.47582 19.19117 2220 ft 120 kts 268°
2026-05-07 06:45 50.47585 19.17795 2072 ft 123 kts 268°
2026-05-07 06:45 50.47587 19.16441 1843 ft 126 kts 267°
2026-05-07 06:45 50.47589 19.15078 1633 ft 124 kts 266°
2026-05-07 06:46 50.47607 19.13744 1474 ft 123 kts 266°
2026-05-07 06:46 50.47597 19.12395 1315 ft 122 kts 265°
2026-05-07 06:46 50.47604 19.11058 1184 ft 122 kts 265°
2026-05-07 06:46 50.47600 19.09725 1022 ft 120 kts 264°
2026-05-07 06:47 50.47600 19.08541 993 ft 90 kts 270°
2026-05-07 06:47 50.47602 19.07783 988 ft 55 kts 269°
2026-05-07 06:47 50.47601 19.07274 987 ft 34 kts 264°
2026-05-07 06:47 50.47535 19.06973 987 ft 28 kts 240°
2026-05-07 06:48 50.47456 19.06762 986 ft 22 kts 239°
2026-05-07 06:48 50.47371 19.06630 979 ft 15 kts 187°
2026-05-07 06:48 50.47269 19.06634 983 ft 14 kts 162°
2026-05-07 06:48 50.47237 19.06766 980 ft 14 kts 90°
2026-05-07 06:49 50.47237 19.06917 987 ft 14 kts 91°
2026-05-07 06:49 50.47234 19.07067 983 ft 14 kts 91°
2026-05-07 06:49 50.47233 19.07218 984 ft 14 kts 91°
2026-05-07 06:49 50.47232 19.07369 985 ft 14 kts 91°
2026-05-07 06:50 50.47233 19.07521 986 ft 14 kts 90°
2026-05-07 06:50 50.47232 19.07673 992 ft 14 kts 90°
2026-05-07 06:50 50.47231 19.07826 992 ft 13 kts 91°
2026-05-07 06:50 50.47195 19.07875 989 ft 7 kts 183°
2026-05-07 06:51 50.47153 19.07874 992 ft 0 kts 181°